Regional Weather Roundup
Issued by NWS Portland, ME

Current Version | Previous Version | Text Only | Print | Product List | Glossary Off
Versions: 1 2 3 4 5 6 7 8 9 10 11 12 13 14 15 16 17 18 19 20 21 22 23 24 25 26 27 28 29 30 31 32 33 34 35 36 37 38 39 40 41 42 43 44 45 46 47 48 49 50
260 ASUS41 KGYX 230810 RWRGYX WEATHER ROUNDUP FOR MAINE AND NEW HAMPSHIRE NATIONAL WEATHER SERVICE GRAY ME 400 AM EDT TUE MAY 23 2017 MEZ002-005-006-010-012-015-018-020-021-024-026-027-029-230900- MAINE CITY SKY/WX TMP DP RH WIND PRES REMARKS PORTLAND CLOUDY 50 49 96 N3 29.92F SANFORD CLOUDY 49 49 100 CALM 29.92F FOG BAR HARBOR LGT RAIN 46 46 100 CALM 29.96F FOG WISCASSET FOG 50 49 96 CALM 29.94F VSB 3/4 ROCKLAND CLOUDY 47 47 100 CALM 29.95F FRYEBURG CLOUDY 48 48 100 CALM 29.92F LEWISTONAUBURN FOG 48 48 100 CALM 29.93F VSB 1/4 AUGUSTA FOG 48 47 96 CALM 29.93F VSB 1 WATERVILLE FOG 48 47 96 CALM 29.90F VSB 1/2 BANGOR CLOUDY 47 46 97 S7 29.94F GREENVILLE N/A 44 44 100 S5 29.88F MILLINOCKET CLOUDY 45 45 100 VRB5 29.93F FOG HOULTON CLOUDY 44 44 100 VRB5 29.91F FOG PRESQUE ISLE LGT RAIN 45 41 86 S9 29.89F FRENCHVILLE CLOUDY 43 41 93 S7 29.84F CARIBOU CLOUDY 46 41 82 S12 29.87F $$ NHZ002-005-008-009-011-012-014-230900- NEW HAMPSHIRE CITY SKY/WX TMP DP RH WIND PRES REMARKS PORTSMOUTH CLOUDY 51 51 98 NW6 29.90F FOG ROCHESTER CLOUDY 48 46 93 NW3 29.91F NASHUA CLOUDY 51 51 100 N5 29.95R MANCHESTER CLOUDY 51 47 86 NW3 29.93S FOG CONCORD CLOUDY 50 48 93 NW5 29.95R LACONIA CLOUDY 48 47 96 CALM 29.93F PLYMOUTH CLOUDY 48 47 96 CALM 29.93F BERLIN CLOUDY 49 46 90 CALM 29.91F WHITEFIELD CLOUDY 49 46 90 CALM 29.93S JAFFREY CLOUDY 49 49 100 CALM 29.94S FOG KEENE CLOUDY 51 50 96 CALM 29.95S LEBANON CLOUDY 51 50 96 CALM 29.94S MT WASHINGTON FOG 36 36 100 W46 N/A VSB 0 $$ VTZ005-007-008-230900- VERMONT CITY SKY/WX TMP DP RH WIND PRES REMARKS ST JOHNSBURY N/A 49 47 93 MISG 29.92F MONTPELIER CLOUDY 44 44 100 S3 29.96S BURLINGTON MOCLDY 50 48 93 CALM 29.92F $$ MAZ007-012-024-CTZ003-RIZ002-NYZ038-NYZ072-230900- SOUTHERN NEW ENGLAND AND NY CITY SKY/WX TMP DP RH WIND PRES REMARKS BOSTON CLOUDY 53 52 96 NW5 29.93S WORCESTER PTCLDY 50 49 96 NW6 29.93F NANTUCKET LGT RAIN 55 54 96 S15 29.90F FOG PROVIDENCE CLOUDY 55 55 100 N8 29.92R HARTFORD FOG 51 51 100 CALM 29.94F VSB 1/4 ALBANY PTCLDY 49 46 90 CALM 29.97F NEW YORK CITY CLOUDY 60 56 86 N5 29.93R $$ ANZ081-ANZ082-ANZ150-NHZ014-MEZ023>029-230900- COASTAL MARINE OBSERVATIONS STATION/POSITION TIME TEMP WIND PRES WAVE AIR SEA DIR/SP/G HT/PER (UTC) (F) (DEG/KT/KT) (MB) (FT/S) MOUNT DESERT ROC 0800 47 1014.0F ISLE OF SHOALS 0700 50 60/ 3/ 4 1013.3F JEFFREYS LEDGE 0706 50 N/A 3/ 5 CASHES LEDGE BUO 0650 49 48 1014.4 3/ 5 GEORGES BANK BUO 0650 50 47 1017.2 3/ 8 $$ .............KEY.............. WCI - WIND CHILL TC - TEMPERATURE IN CELSIUS VSB - VISIBILITY IN MILES HX - HEAT INDEX FAIR- INDICATES FEW OR NO CLOUDS BELOW 12,000 FT, WITH NO SIGNIFICANT WEATHER AND/OR OBSTRUCTIONS TO VISIBILITY.

USA.gov is the U.S. government's official web portal to all federal, state and local government web resources and services.